Time,TemperatureF,DewpointF,PressureIn,WindDirection,WindDirectionDegrees,WindSpeedMPH,WindSpeedGustMPH,Humidity,HourlyPrecipIn,Conditions,Clouds,dailyrainin,SoftwareType,DateUTC
2013-02-11 00:02:00,41.6,42.0,30.16,East,87,2.0,3.0,100,0.00,,,0.14,weatherlink.com 1.10,2013-02-11 05:02:00,
2013-02-11 00:17:00,41.5,42.0,30.15,East,86,0.0,2.0,100,0.00,,,0.14,weatherlink.com 1.10,2013-02-11 05:17:00,
2013-02-11 00:32:00,41.8,42.0,30.16,SSW,213,1.0,3.0,100,0.00,,,0.14,weatherlink.com 1.10,2013-02-11 05:32:00,
2013-02-11 00:47:00,42.0,42.0,30.16,SSW,213,0.0,1.0,100,0.00,,,0.00,weatherlink.com 1.10,2013-02-11 05:47:00,
2013-02-11 01:02:00,42.3,42.0,30.15,SSW,213,0.0,0.0,100,0.00,,,0.00,weatherlink.com 1.10,2013-02-11 06:02:00,
2013-02-11 01:17:00,42.3,42.0,30.15,SSW,213,0.0,1.0,100,0.01,,,0.01,weatherlink.com 1.10,2013-02-11 06:17:00,
2013-02-11 01:32:00,42.3,42.0,30.15,SSW,213,0.0,3.0,100,0.01,,,0.01,weatherlink.com 1.10,2013-02-11 06:32:00,
2013-02-11 01:47:00,42.3,42.0,30.14,West,277,1.0,3.0,100,0.01,,,0.01,weatherlink.com 1.10,2013-02-11 06:47:00,
2013-02-11 02:02:00,42.7,43.0,30.13,West,277,0.0,1.0,100,0.01,,,0.01,weatherlink.com 1.10,2013-02-11 07:02:00,
2013-02-11 02:17:00,42.9,43.0,30.13,West,277,0.0,1.0,100,0.00,,,0.01,weatherlink.com 1.10,2013-02-11 07:17:00,
2013-02-11 02:32:00,42.9,43.0,30.12,WSW,241,0.0,3.0,100,0.00,,,0.01,weatherlink.com 1.10,2013-02-11 07:32:00,
2013-02-11 02:47:00,42.9,43.0,30.12,WSW,241,0.0,1.0,100,0.00,,,0.01,weatherlink.com 1.10,2013-02-11 07:47:00,
2013-02-11 03:02:00,42.9,43.0,30.11,WSW,241,0.0,1.0,100,0.00,,,0.01,weatherlink.com 1.10,2013-02-11 08:02:00,
2013-02-11 03:17:00,43.0,43.0,30.11,WSW,241,0.0,1.0,100,0.00,,,0.01,weatherlink.com 1.10,2013-02-11 08:17:00,
2013-02-11 03:32:00,43.2,43.0,30.09,WSW,241,0.0,0.0,100,0.00,,,0.01,weatherlink.com 1.10,2013-02-11 08:32:00,
2013-02-11 03:47:00,43.1,43.0,30.09,WSW,241,0.0,0.0,100,0.00,,,0.01,weatherlink.com 1.10,2013-02-11 08:47:00,
2013-02-11 04:02:00,43.1,43.0,30.08,WSW,241,0.0,0.0,100,0.00,,,0.01,weatherlink.com 1.10,2013-02-11 09:02:00,
2013-02-11 04:17:00,43.2,43.0,30.09,WSW,241,0.0,0.0,100,0.00,,,0.01,weatherlink.com 1.10,2013-02-11 09:17:00,
2013-02-11 04:32:00,43.8,44.0,30.08,WSW,241,0.0,0.0,100,0.01,,,0.02,weatherlink.com 1.10,2013-02-11 09:32:00,
2013-02-11 04:47:00,43.7,44.0,30.08,WSW,241,0.0,0.0,100,0.01,,,0.02,weatherlink.com 1.10,2013-02-11 09:47:00,
2013-02-11 05:02:00,43.6,44.0,30.09,WSW,241,0.0,1.0,100,0.01,,,0.02,weatherlink.com 1.10,2013-02-11 10:02:00,
2013-02-11 05:17:00,43.6,44.0,30.10,WSW,241,0.0,1.0,100,0.02,,,0.03,weatherlink.com 1.10,2013-02-11 10:17:00,
2013-02-11 05:32:00,43.9,44.0,30.10,WSW,241,0.0,0.0,100,0.01,,,0.03,weatherlink.com 1.10,2013-02-11 10:32:00,
2013-02-11 05:47:00,43.9,44.0,30.10,WSW,241,0.0,0.0,100,0.02,,,0.04,weatherlink.com 1.10,2013-02-11 10:47:00,
2013-02-11 06:02:00,43.9,44.0,30.10,WSW,241,0.0,2.0,100,0.03,,,0.05,weatherlink.com 1.10,2013-02-11 11:02:00,
2013-02-11 06:17:00,44.0,44.0,30.09,WSW,241,0.0,1.0,100,0.03,,,0.06,weatherlink.com 1.10,2013-02-11 11:17:00,
2013-02-11 06:47:00,44.5,45.0,30.09,WSW,241,0.0,0.0,100,0.03,,,0.07,weatherlink.com 1.10,2013-02-11 11:47:00,
2013-02-11 07:02:00,44.3,44.0,30.08,WSW,241,0.0,0.0,100,0.04,,,0.09,weatherlink.com 1.10,2013-02-11 12:02:00,
2013-02-11 07:17:00,44.3,44.0,30.06,WSW,241,0.0,1.0,100,0.03,,,0.09,weatherlink.com 1.10,2013-02-11 12:17:00,
2013-02-11 07:32:00,44.5,45.0,30.04,WSW,241,1.0,3.0,100,0.03,,,0.09,weatherlink.com 1.10,2013-02-11 12:32:00,
2013-02-11 07:47:00,44.7,45.0,30.05,WSW,241,0.0,2.0,100,0.02,,,0.09,weatherlink.com 1.10,2013-02-11 12:47:00,
2013-02-11 08:02:00,45.0,45.0,30.07,WSW,241,0.0,2.0,100,0.00,,,0.09,weatherlink.com 1.10,2013-02-11 13:02:00,
2013-02-11 08:17:00,45.3,45.0,30.09,WSW,241,0.0,3.0,100,0.00,,,0.09,weatherlink.com 1.10,2013-02-11 13:17:00,
2013-02-11 08:32:00,45.2,45.0,30.09,SW,223,0.0,5.0,100,0.01,,,0.10,weatherlink.com 1.10,2013-02-11 13:32:00,
2013-02-11 08:47:00,45.4,45.0,30.09,SW,223,0.0,0.0,100,0.01,,,0.10,weatherlink.com 1.10,2013-02-11 13:47:00,
2013-02-11 09:03:00,45.6,46.0,30.08,SW,223,0.0,1.0,100,0.01,,,0.10,weatherlink.com 1.10,2013-02-11 14:03:00,
2013-02-11 09:18:00,45.8,46.0,30.07,SW,223,0.0,1.0,100,0.01,,,0.10,weatherlink.com 1.10,2013-02-11 14:18:00,
2013-02-11 09:33:00,46.3,46.0,30.07,SW,223,0.0,1.0,100,0.00,,,0.10,weatherlink.com 1.10,2013-02-11 14:33:00,
2013-02-11 09:48:00,47.0,47.0,30.07,SW,223,0.0,2.0,100,0.00,,,0.10,weatherlink.com 1.10,2013-02-11 14:48:00,
2013-02-11 10:03:00,47.4,47.0,30.05,SW,223,0.0,1.0,100,0.00,,,0.10,weatherlink.com 1.10,2013-02-11 15:03:00,
2013-02-11 10:18:00,47.9,48.0,30.05,SSW,206,1.0,3.0,100,0.00,,,0.10,weatherlink.com 1.10,2013-02-11 15:18:00,
2013-02-11 10:33:00,48.2,48.0,30.04,South,182,0.0,3.0,100,0.00,,,0.10,weatherlink.com 1.10,2013-02-11 15:33:00,
2013-02-11 10:48:00,49.2,49.0,30.05,ESE,110,0.0,4.0,100,0.00,,,0.10,weatherlink.com 1.10,2013-02-11 15:48:00,
2013-02-11 11:03:00,50.1,50.0,30.05,SE,141,0.0,4.0,100,0.00,,,0.10,weatherlink.com 1.10,2013-02-11 16:03:00,
2013-02-11 11:18:00,50.3,50.0,30.06,SE,140,0.0,3.0,100,0.00,,,0.10,weatherlink.com 1.10,2013-02-11 16:18:00,
2013-02-11 11:33:00,50.6,51.0,30.05,SE,140,0.0,3.0,100,0.00,,,0.10,weatherlink.com 1.10,2013-02-11 16:33:00,
2013-02-11 11:48:00,50.8,51.0,30.05,ESE,115,0.0,5.0,100,0.00,,,0.10,weatherlink.com 1.10,2013-02-11 16:48:00,
2013-02-11 12:03:00,50.8,51.0,30.05,SE,128,0.0,7.0,100,0.00,,,0.10,weatherlink.com 1.10,2013-02-11 17:03:00,
2013-02-11 12:18:00,50.9,51.0,30.05,SSE,154,0.0,3.0,100,0.00,,,0.10,weatherlink.com 1.10,2013-02-11 17:18:00,
2013-02-11 12:33:00,51.0,51.0,30.03,SSE,154,0.0,3.0,100,0.00,,,0.10,weatherlink.com 1.10,2013-02-11 17:33:00,
2013-02-11 12:48:00,51.2,51.0,30.02,SSE,154,3.0,3.0,100,0.01,,,0.11,weatherlink.com 1.10,2013-02-11 17:48:00,
2013-02-11 13:03:00,51.5,52.0,30.02,SSE,150,0.0,3.0,100,0.01,,,0.11,weatherlink.com 1.10,2013-02-11 18:03:00,
2013-02-11 13:18:00,51.8,52.0,30.02,ESE,123,0.0,7.0,100,0.01,,,0.11,weatherlink.com 1.10,2013-02-11 18:18:00,
2013-02-11 13:33:00,52.1,52.0,30.01,SE,126,1.0,7.0,100,0.01,,,0.11,weatherlink.com 1.10,2013-02-11 18:33:00,
2013-02-11 13:48:00,52.4,52.0,30.00,SE,125,0.0,8.0,100,0.00,,,0.11,weatherlink.com 1.10,2013-02-11 18:48:00,
2013-02-11 14:03:00,52.7,53.0,30.02,SSE,149,1.0,5.0,100,0.00,,,0.11,weatherlink.com 1.10,2013-02-11 19:03:00,
2013-02-11 14:18:00,53.3,53.0,30.01,SE,138,1.0,9.0,100,0.00,,,0.11,weatherlink.com 1.10,2013-02-11 19:18:00,
2013-02-11 14:33:00,53.8,54.0,30.00,SSE,154,2.0,10.0,100,0.00,,,0.11,weatherlink.com 1.10,2013-02-11 19:33:00,
2013-02-11 14:48:00,54.2,54.0,29.98,ESE,121,2.0,8.0,100,0.00,,,0.11,weatherlink.com 1.10,2013-02-11 19:48:00,
2013-02-11 15:03:00,54.5,55.0,29.98,SE,145,4.0,14.0,100,0.00,,,0.11,weatherlink.com 1.10,2013-02-11 20:03:00,
2013-02-11 15:18:00,54.8,55.0,29.98,SE,137,2.0,8.0,100,0.00,,,0.11,weatherlink.com 1.10,2013-02-11 20:18:00,
2013-02-11 15:33:00,54.9,55.0,29.97,ESE,116,4.0,7.0,100,0.00,,,0.11,weatherlink.com 1.10,2013-02-11 20:33:00,
2013-02-11 15:48:00,55.2,55.0,29.98,SE,130,2.0,7.0,100,0.00,,,0.11,weatherlink.com 1.10,2013-02-11 20:48:00,
2013-02-11 16:03:00,55.3,55.0,29.98,South,176,3.0,5.0,100,0.00,,,0.11,weatherlink.com 1.10,2013-02-11 21:03:00,
2013-02-11 16:18:00,55.2,55.0,29.98,East,100,4.0,5.0,100,0.00,,,0.11,weatherlink.com 1.10,2013-02-11 21:18:00,
2013-02-11 16:33:00,55.2,55.0,29.96,ESE,115,2.0,8.0,100,0.00,,,0.11,weatherlink.com 1.10,2013-02-11 21:33:00,
2013-02-11 16:48:00,55.1,55.0,29.96,SSE,161,0.0,5.0,100,0.00,,,0.11,weatherlink.com 1.10,2013-02-11 21:48:00,
2013-02-11 17:03:00,55.1,55.0,29.98,South,181,0.0,6.0,100,0.00,,,0.11,weatherlink.com 1.10,2013-02-11 22:03:00,
2013-02-11 17:18:00,55.0,55.0,29.98,SSE,155,1.0,3.0,100,0.00,,,0.11,weatherlink.com 1.10,2013-02-11 22:18:00,
2013-02-11 17:33:00,54.8,55.0,29.99,South,175,2.0,6.0,100,0.00,,,0.11,weatherlink.com 1.10,2013-02-11 22:33:00,
2013-02-11 17:48:00,54.7,55.0,29.98,SE,139,0.0,3.0,100,0.00,,,0.11,weatherlink.com 1.10,2013-02-11 22:48:00,
2013-02-11 18:03:00,54.5,55.0,29.98,ESE,123,0.0,4.0,100,0.00,,,0.11,weatherlink.com 1.10,2013-02-11 23:03:00,
2013-02-11 18:18:00,54.3,54.0,29.98,ESE,120,0.0,4.0,100,0.00,,,0.11,weatherlink.com 1.10,2013-02-11 23:18:00,
2013-02-11 18:33:00,54.0,54.0,30.01,SE,131,0.0,4.0,100,0.00,,,0.11,weatherlink.com 1.10,2013-02-11 23:33:00,
2013-02-11 18:48:00,53.8,54.0,30.00,ESE,106,1.0,4.0,100,0.00,,,0.11,weatherlink.com 1.10,2013-02-11 23:48:00,
2013-02-11 19:03:00,53.4,53.0,30.00,SE,128,1.0,1.0,99,0.00,,,0.11,weatherlink.com 1.10,2013-02-12 00:03:00,
2013-02-11 19:18:00,53.0,53.0,30.00,SSE,148,0.0,2.0,100,0.00,,,0.11,weatherlink.com 1.10,2013-02-12 00:18:00,
2013-02-11 19:33:00,52.8,53.0,30.01,SE,139,0.0,2.0,100,0.00,,,0.11,weatherlink.com 1.10,2013-02-12 00:33:00,
2013-02-11 19:48:00,52.6,53.0,30.01,SSW,195,2.0,4.0,100,0.00,,,0.11,weatherlink.com 1.10,2013-02-12 00:48:00,
2013-02-11 20:03:00,52.5,53.0,30.01,SSE,166,2.0,5.0,100,0.00,,,0.11,weatherlink.com 1.10,2013-02-12 01:03:00,
2013-02-11 20:18:00,52.2,52.0,30.00,SSE,168,1.0,4.0,99,0.00,,,0.11,weatherlink.com 1.10,2013-02-12 01:18:00,
2013-02-11 20:33:00,51.9,52.0,30.00,SSE,147,2.0,3.0,100,0.00,,,0.11,weatherlink.com 1.10,2013-02-12 01:33:00,
2013-02-11 20:48:00,51.6,52.0,30.00,SE,129,0.0,5.0,100,0.00,,,0.11,weatherlink.com 1.10,2013-02-12 01:48:00,
2013-02-11 21:03:00,51.4,51.0,30.01,South,171,0.0,5.0,100,0.00,,,0.11,weatherlink.com 1.10,2013-02-12 02:03:00,
2013-02-11 21:18:00,51.1,51.0,30.01,SE,142,0.0,3.0,100,0.00,,,0.11,weatherlink.com 1.10,2013-02-12 02:18:00,
2013-02-11 21:34:00,50.7,51.0,30.01,ENE,71,4.0,4.0,100,0.00,,,0.11,weatherlink.com 1.10,2013-02-12 02:34:00,
2013-02-11 21:49:00,50.3,50.0,30.01,SSE,167,0.0,4.0,100,0.00,,,0.11,weatherlink.com 1.10,2013-02-12 02:49:00,
2013-02-11 22:04:00,50.2,50.0,30.01,SSE,156,2.0,3.0,100,0.00,,,0.11,weatherlink.com 1.10,2013-02-12 03:04:00,
2013-02-11 22:19:00,50.2,50.0,30.00,East,97,0.0,2.0,100,0.00,,,0.11,weatherlink.com 1.10,2013-02-12 03:19:00,
2013-02-11 22:34:00,50.3,50.0,29.99,SSE,157,0.0,4.0,100,0.00,,,0.11,weatherlink.com 1.10,2013-02-12 03:34:00,
2013-02-11 22:49:00,50.2,50.0,29.99,SSE,164,3.0,6.0,100,0.00,,,0.11,weatherlink.com 1.10,2013-02-12 03:49:00,
2013-02-11 23:04:00,50.1,50.0,29.98,SE,140,0.0,4.0,100,0.00,,,0.11,weatherlink.com 1.10,2013-02-12 04:04:00,
2013-02-11 23:19:00,49.9,50.0,29.99,SE,131,1.0,4.0,100,0.00,,,0.11,weatherlink.com 1.10,2013-02-12 04:19:00,
2013-02-11 23:34:00,49.7,50.0,29.97,SE,130,0.0,3.0,100,0.00,,,0.11,weatherlink.com 1.10,2013-02-12 04:34:00,
2013-02-11 23:49:00,49.4,49.0,29.99,SE,133,0.0,2.0,100,0.00,,,0.11,weatherlink.com 1.10,2013-02-12 04:49:00,